Location: Koussan�
(15.2012°N, 12.5548°W)
Time: 01:29:56
(UTC+00:00)

MOS 1 Rocket - Pass Details

Date: 20 October 2020
Orbit: 615 x 829 km, 97.4° (Epoch: 25 November)

Event Time Altitude Azimuth Distance (km) Brightness Sun altitude
Rises 19:01:38 0° 23° (NNE) 3,044 6.3 -9.2°
Reaches altitude 10° 19:03:57 10° 31° (NNE) 2,161 5.5 -9.7°
Maximum altitude 19:08:23 39° 100° (E) 1,081 3.8 -10.8°
Drops below altitude 10° 19:13:05 10° 169° (S) 2,287 5.9 -11.9°
Sets 19:15:34 0° 176° (S) 3,245 6.8 -12.5°
